{"data":{"norad_id":67137,"intl_designator":"2025-301E","name":"KUIPER-00181","alt_names":[],"object_type":"PAYLOAD","status":"ACTIVE","operator":null,"country":"US","launch_date":"2025-12-16","launch_site_code":"AFETR","launch_vehicle":null,"mission":null,"orbit_class":"UNKNOWN","rcs_meters":null,"size_class":null,"mass_kg":null,"dimensions":null,"purposes":[],"wikipedia_slug":null,"has_3d_model":false,"image_url":null,"decayed_at":null,"tle_current":{"epoch":"2026-05-25T02:57:14.888736Z","epoch_age_seconds":58293,"freshness":"FRESH","line1":"1 67137U 25301E   26145.12308899  .00002794  00000+0  39525-3 0  9991","line2":"2 67137  51.9017 100.1266 0001609  78.7389 281.3755 14.79954052 25030","mean_motion":14.79954052,"eccentricity":0.0001609,"inclination_deg":51.9017,"raan_deg":100.1266,"arg_perigee_deg":78.7389,"mean_anomaly_deg":281.3755,"bstar":0.00039525,"rev_number":2503,"period_min":97.300318077713,"perigee_km":628.34165018206,"apogee_km":630.59669784886,"semimajor_km":7007.6061740155,"source":"CELESTRAK","updated_at":"2026-05-25T13:38:06.748962Z"}}}